Location: Newark
(41.8083°N, 72.2500°W)
Time: 20:39:16
(UTC+00:00)

Courier 1B - Pass Details

Date: 02 December 2021
Orbit: 962 x 1209 km, 28.3° (Epoch: 19 January)

Event Time Altitude Azimuth Distance (km) Brightness Sun altitude
Rises 22:35:20 0° 236° (SW) 3,985 12.3 -13.9°
Reaches altitude 10° 22:38:44 10° 224° (SW) 2,984 11.0 -14.5°
Maximum altitude 22:44:26 25° 172° (S) 2,023 9.2 -15.5°
Enters shadow 22:49:47 10° 121° (ESE) 2,813 9.5 -16.5°
Drops below altitude 10° 22:49:53 10° 120° (ESE) 2,840 - -16.5°
Sets 22:53:01 0° 108° (ESE) 3,753 - -17.1°
